Flag for Canada Weather past 2 weeks in Timmins, Ontario, Canada

Now
55 °F

Overcast.


Feels Like: 54 °F
Forecast: 51 / 61 °F
Wind: 7 mph from Northwest

Location: Timmins

Current Time: Aug 27, 2014 at 9:39:50 AM

Latest Report: Aug 27, 2014 at 9:00 AM


Visibility: 15 mi

Pressure: 30.05 "Hg

Humidity: 88%

Dew point: 52 °F

Location of TimminsLocation

Historic Weather in Timmins — Graph

°F

Timmins temperature yesterday

Maximum temperature yesterday: 70 °F (at 12:00 AM)
Minimum temperature yesterday: 54 °F (at 11:00 PM)
Average temperature yesterday: 65 °F

Past Weeks' High & Low Weather Summary

 TemperatureHumidityPressure
High81 °F (Aug 23, 5:00 PM)100% (Aug 12, 1:00 PM)30.23 "Hg (Aug 12, 1:00 PM)
Low37 °F (Aug 18, 4:00 AM)45% (Aug 24, 3:00 PM)29.61 "Hg (Aug 12, 7:00 PM)
Average59 °F87%29.95 "Hg
* Reported Aug 12 8:03 AM — Aug 27 8:00 AM, Timmins, Weather by CustomWeather, © 2014

Note: Actual official high and low records may vary slightly from our data, if they occured in-between our weather recording intervals... More about our weather records

Advertising

Timmins weather history for previous 24 hours

 ConditionsComfort  
Time TempWeatherWind HumidityBarometerVisibility
8:00 AM
Aug 27
55 °FLow clouds.5 mph94%30.04 "Hg15 mi
7:47 AM55 °FLow clouds.6 mph94%30.03 "Hg15 mi
7:00 AM55 °FLow clouds.5 mph94%30.02 "Hg15 mi
6:00 AM54 °FPassing clouds.3 mph100%30.01 "Hg15 mi
5:00 AM54 °FMostly cloudy.3 mph100%30.01 "Hg15 mi
4:00 AM54 °FOvercast.3 mph100%30.00 "Hg15 mi
3:00 AM55 °FLight rain. Overcast.8 mph94%30.01 "Hg4 mi
2:00 AM55 °FMostly cloudy.2 mph94%30.01 "Hg15 mi
1:00 AM55 °FPartly cloudy.3 mph94%30.00 "Hg15 mi
12:00 AM57 °FMostly cloudy.9 mph88%29.99 "Hg15 mi
11:00 PM
Aug 26
54 °FPassing clouds.5 mph94%29.98 "Hg15 mi
10:00 PM55 °FPassing clouds.5 mph94%29.97 "Hg15 mi
9:00 PM59 °FBroken clouds.9 mph82%29.97 "Hg15 mi
8:00 PM59 °FLight rain. Overcast.5 mph88%29.97 "Hg6 mi
7:00 PM63 °FPartly sunny.9 mph73%29.94 "Hg15 mi
6:00 PM66 °FBroken clouds.9 mph64%29.92 "Hg15 mi
5:00 PM64 °FLight rain. Partly sunny.9 mph68%29.94 "Hg15 mi
4:00 PM63 °FLight rain. Partly sunny.16 mph68%29.93 "Hg15 mi
3:00 PM64 °FLight rain. Partly sunny.17 mph64%29.91 "Hg15 mi
2:49 PM66 °FPartly sunny.12 mph68%29.90 "Hg15 mi
2:00 PM66 °FPartly sunny.12 mph64%29.90 "Hg15 mi
1:00 PM68 °FPartly sunny.10 mph60%29.89 "Hg15 mi
12:00 PM66 °FOvercast.7 mph64%29.90 "Hg15 mi
11:00 AM66 °FScattered clouds.10 mph68%29.87 "Hg15 mi
10:00 AM68 °FPassing clouds.13 mph64%29.87 "Hg15 mi
9:00 AM68 °FPassing clouds.13 mph64%29.86 "Hg15 mi
Weather by CustomWeather, © 2014

See weather overviewHow to use our weather pages